STARLINK-1726, 46362

Orbit data source: Space-Track

STARLINK-1726, 46362 is a payload satellite owned by SpaceX/Seattle (US) in LEO that was launched on Thu, 03 Sep 2020 UTC via an FALCON 9 launch vehicle from the Air Force Eastern Test Range (AFETR). Payload-class satellites include a variety of spacecraft equipped with specific instruments for various scientific and technological missions. These include communications satellites like Starlink; space stations such as the ISS; scientific satellites like the Hubble; Earth observation satellites from companies like Planet Labs, Umbra, and HawkEye 360; GPS; miniature CubeSats for education and research; and military/defense satellites.

Loading next visibility...
Identifier
46362, 2020-062AP
Orbit
LEO
Last TLE update
15 hours ago
Origin
Manufacturer
SpaceX/Seattle
Mission
Operational Commercial Communications
Bus & Motor
STARLINK, Unknown motor
Mass
260 kg wet, ~248 kg dry
Launch date (UTC)
2020-09-03 (5 years ago)
Launch vehicle
FALCON 9
Launch site
Air Force Eastern Test Range (AFETR)
Object type
Payload
Rocket body
Debris
Shape & HBR
Box + 1 Pan, 8.86 m
Radar Cross Section
13.562 m², Large (>1 m²)

Expand to show TLE details & history

TLE from 15 hours ago
0 STARLINK-1726
1 46362U 20062AP  25128.64879593  .00000974  00000-0  84272-4 0  9997
2 46362  53.0541 260.9975 0001347  79.1714 280.9426 15.06395105258969
Epoch: 2025-05-08T15:34Z
Definitive object data (Epoch: 2025-05-08T15:34:15.968Z)
Latitude
-0.00006°
Longitude
160.71465°
Altitude
547.929 km
Speed
7.589 km/s
True Right ascension
17h 23m 59s
True Declination
0° 00' 00"
Sunlit
Object was in full shadow at TLE epoch
Visualization TLE readout
Latitude
-49.97212°
Longitude
40.76138°
Altitude
565.384 km
Speed
7.578 km/s
Apparent Right ascension
06h 06m 07s
Apparent Declination
-55° 31' 50"
Sunlit
Object is in daylight
Visualization observer readout
Local Sidereal Time
15:10:08
Azimuth
226.653° WSW
Elevation
-57.276°
Doppler factor
1
Orbital elements
Apogee altitude
548.43 km
Perigee altitude
546.564 km
Semi-major axis
6,925.634 km
Eccentricity
0.0001347
Inclination
53.0541°
RAAN
260.9975°
Arg. of periapsis
79.1714°
True anomaly
280.92744°
Mean anomaly
280.9426°
Eccentric anomaly
280.93502°
Mean motion
3.76577 °/min
BSTAR
0.000084272
Orbital period
95.6 mins
Loading maneuver chart data...
Loading SW <> Apogee altitude chart data...
Loading historical data...
Loading historical data...
Loading historical data...
Loading historical data...
Loading historical data...
Loading historical data...
Loading historical data...

STARLINK-1726 Visibility forecast

Observer location: undefined°, undefined°

Span
Click to sort rows by Start time (UTC) header in descending order
Start Az.
Max El. time (UTC)
Max El. Az.
Max El.
End time (UTC)
End Az.
6 mins2025-05-09 10:50:12.267Z197.315° SSW2025-05-09 10:53:12.267Z137.306° SSE31.783°2025-05-09 10:56:12.267Z70.226° E
6 mins2025-05-09 12:30:12.267Z272.37° WNW2025-05-09 12:33:12.267Z341.287° N28.739°2025-05-09 12:36:12.267Z33.637° NE
6 mins2025-05-09 17:32:12.267Z330.208° NNW2025-05-09 17:34:12.267Z12.562° NNE32.801°2025-05-09 17:38:12.267Z103.016° ESE
5 mins2025-05-09 19:12:12.267Z271.709° WNW2025-05-09 19:14:12.267Z225.852° WSW25.396°2025-05-09 19:17:12.267Z172.689° S
|